SB KEPS @ AMSAT $ORB12138.O Orbital Elements 12138.OSCAR
HR AMSAT ORBITAL ELEMENTS FOR OSCAR SATELLITES FROM WA5QGD FORT WORTH,TX May 17, 2012 Send SUBSCRIBE KEPS/UNSUBSCRIBE KEPS to [email protected] only BID: ORB12138.O TO ALL RADIO AMATEURS BT
Satellite: AO-07 Catalog number: 07530 Epoch time: 12138.42020871 Element set: 381 Inclination: 101.4014 deg RA of node: 136.8198 deg Eccentricity: 0.0011915 Arg of perigee: 344.4740 deg Mean anomaly: 015.5976 deg Mean motion: 12.53589299 rev/day Decay rate: -2.7e-07 rev/day^2 Epoch rev: 71619 Checksum: 294
Satellite: FO-29 Catalog number: 24278 Epoch time: 12137.90520871 Element set: 0848 Inclination: 098.5839 deg RA of node: 242.6568 deg Eccentricity: 0.0351237 Arg of perigee: 110.2840 deg Mean anomaly: 253.6413 deg Mean motion: 13.52983410 rev/day Decay rate: 6.0e-08 rev/day^2 Epoch rev: 77772 Checksum: 320
Satellite: SO-33 Catalog number: 25509 Epoch time: 12137.47682434 Element set: 233 Inclination: 031.4350 deg RA of node: 153.1475 deg Eccentricity: 0.0352774 Arg of perigee: 285.8160 deg Mean anomaly: 070.3851 deg Mean motion: 14.28735060 rev/day Decay rate: 6.76e-06 rev/day^2 Epoch rev: 70811 Checksum: 293
Satellite: RS-22 Catalog number: 27939 Epoch time: 12138.72000763 Element set: 362 Inclination: 097.8152 deg RA of node: 341.0971 deg Eccentricity: 0.0013551 Arg of perigee: 007.0722 deg Mean anomaly: 353.0672 deg Mean motion: 14.64007940 rev/day Decay rate: 5.55e-06 rev/day^2 Epoch rev: 46142 Checksum: 278
Satellite: VO-52 Catalog number: 28650 Epoch time: 12137.81410167 Element set: 0105 Inclination: 097.5999 deg RA of node: 170.3018 deg Eccentricity: 0.0027209 Arg of perigee: 142.0385 deg Mean anomaly: 218.2729 deg Mean motion: 14.82900887 rev/day Decay rate: 1.466e-05 rev/day^2 Epoch rev: 38032 Checksum: 307
Satellite: HO-68 Catalog number: 36122 Epoch time: 12138.73649777 Element set: 469 Inclination: 100.3635 deg RA of node: 198.6939 deg Eccentricity: 0.0007515 Arg of perigee: 176.2935 deg Mean anomaly: 183.8243 deg Mean motion: 13.16295420 rev/day Decay rate: -4.4e-07 rev/day^2 Epoch rev: 11638 Checksum: 327
/EX SB KEPS @ AMSAT $ORB12138.D Orbital Elements 12138.MICROS
HR AMSAT ORBITAL ELEMENTS FOR THE MICROSATS FROM WA5QGD FORT WORTH,TX May 17, 2012 Send SUBSCRIBE KEPS/UNSUBSCRIBE KEPS to [email protected] only BID: ORB12138.D TO ALL RADIO AMATEURS BT
Satellite: UO-11 Catalog number: 14781 Epoch time: 12137.89504437 Element set: 0876 Inclination: 097.9563 deg RA of node: 197.6858 deg Eccentricity: 0.0009598 Arg of perigee: 129.7339 deg Mean anomaly: 230.4715 deg Mean motion: 14.80424556 rev/day Decay rate: 6.91e-06 rev/day^2 Epoch rev: 51530 Checksum: 347
Satellite: AO-16 Catalog number: 20439 Epoch time: 12138.48440302 Element set: 467 Inclination: 098.4284 deg RA of node: 082.7215 deg Eccentricity: 0.0009947 Arg of perigee: 250.4501 deg Mean anomaly: 109.5610 deg Mean motion: 14.32048928 rev/day Decay rate: 1.43e-06 rev/day^2 Epoch rev: 16560 Checksum: 287
Satellite: LO-19 Catalog number: 20442 Epoch time: 12137.95318682 Element set: 0394 Inclination: 098.3942 deg RA of node: 085.3209 deg Eccentricity: 0.0011008 Arg of perigee: 241.7355 deg Mean anomaly: 118.2715 deg Mean motion: 14.32267764 rev/day Decay rate: 1.62e-06 rev/day^2 Epoch rev: 16571 Checksum: 299
Satellite: AO-27 Catalog number: 22825 Epoch time: 12137.88754780 Element set: 104 Inclination: 098.5728 deg RA of node: 081.1925 deg Eccentricity: 0.0008802 Arg of perigee: 017.9186 deg Mean anomaly: 342.2297 deg Mean motion: 14.29456395 rev/day Decay rate: 8.9e-07 rev/day^2 Epoch rev: 97200 Checksum: 332
Satellite: IO-26 Catalog number: 22826 Epoch time: 12138.52426516 Element set: 854 Inclination: 098.5674 deg RA of node: 082.1982 deg Eccentricity: 0.0009170 Arg of perigee: 009.7811 deg Mean anomaly: 350.3546 deg Mean motion: 14.29730074 rev/day Decay rate: 1.27e-06 rev/day^2 Epoch rev: 97222 Checksum: 308
Satellite: GO-32 Catalog number: 25397 Epoch time: 12138.18416799 Element set: 776 Inclination: 098.3602 deg RA of node: 118.4236 deg Eccentricity: 0.0001754 Arg of perigee: 048.1481 deg Mean anomaly: 311.9853 deg Mean motion: 14.23274520 rev/day Decay rate: 1.89e-06 rev/day^2 Epoch rev: 71961 Checksum: 319
Satellite: NO-44 Catalog number: 26931 Epoch time: 12138.40264948 Element set: 41 Inclination: 067.0518 deg RA of node: 199.6823 deg Eccentricity: 0.0007649 Arg of perigee: 269.5185 deg Mean anomaly: 090.5044 deg Mean motion: 14.29793249 rev/day Decay rate: 3.9e-07 rev/day^2 Epoch rev: 55484 Checksum: 334
Satellite: SO-50 Catalog number: 27607 Epoch time: 12137.72251951 Element set: 0763 Inclination: 064.5592 deg RA of node: 030.6131 deg Eccentricity: 0.0084022 Arg of perigee: 254.6308 deg Mean anomaly: 104.5500 deg Mean motion: 14.72356864 rev/day Decay rate: 4.40e-06 rev/day^2 Epoch rev: 50533 Checksum: 273
Satellite: CO-55 Catalog number: 27844 Epoch time: 12138.57431204 Element set: 375 Inclination: 098.7028 deg RA of node: 147.3984 deg Eccentricity: 0.0009461 Arg of perigee: 317.0375 deg Mean anomaly: 043.0067 deg Mean motion: 14.21012897 rev/day Decay rate: 2.29e-06 rev/day^2 Epoch rev: 46054 Checksum: 304
Satellite: CO-57 Catalog number: 27848 Epoch time: 12138.57261814 Element set: 326 Inclination: 098.7107 deg RA of node: 146.7170 deg Eccentricity: 0.0009435 Arg of perigee: 323.6316 deg Mean anomaly: 036.4224 deg Mean motion: 14.20765501 rev/day Decay rate: 1.79e-06 rev/day^2 Epoch rev: 46048 Checksum: 305
Satellite: AO-51 Catalog number: 28375 Epoch time: 12137.62424019 Element set: 0268 Inclination: 098.1450 deg RA of node: 104.3748 deg Eccentricity: 0.0083832 Arg of perigee: 135.8755 deg Mean anomaly: 224.9158 deg Mean motion: 14.40938556 rev/day Decay rate: 1.59e-06 rev/day^2 Epoch rev: 41422 Checksum: 315
Satellite: CP3 Catalog number: 31129 Epoch time: 12137.95714200 Element set: 0167 Inclination: 097.8823 deg RA of node: 147.5728 deg Eccentricity: 0.0100002 Arg of perigee: 220.0069 deg Mean anomaly: 139.3745 deg Mean motion: 14.53037102 rev/day Decay rate: 5.55e-06 rev/day^2 Epoch rev: 26944 Checksum: 275
Satellite: CO-65 Catalog number: 32785 Epoch time: 12138.74624436 Element set: 310 Inclination: 097.8029 deg RA of node: 200.5158 deg Eccentricity: 0.0015027 Arg of perigee: 157.4640 deg Mean anomaly: 202.7228 deg Mean motion: 14.82917590 rev/day Decay rate: 1.716e-05 rev/day^2 Epoch rev: 21925 Checksum: 301
Satellite: PRISM Catalog number: 33493 Epoch time: 12138.71288557 Element set: 702 Inclination: 098.1669 deg RA of node: 278.5612 deg Eccentricity: 0.0019633 Arg of perigee: 039.3035 deg Mean anomaly: 320.9603 deg Mean motion: 14.83748550 rev/day Decay rate: 2.836e-05 rev/day^2 Epoch rev: 17923 Checksum: 321
Satellite: SOHLA-1 Catalog number: 33496 Epoch time: 12137.86061828 Element set: 0748 Inclination: 098.1018 deg RA of node: 249.8094 deg Eccentricity: 0.0007193 Arg of perigee: 134.0363 deg Mean anomaly: 226.1428 deg Mean motion: 14.69950070 rev/day Decay rate: 3.48e-06 rev/day^2 Epoch rev: 17764 Checksum: 317
Satellite: SO-67 Catalog number: 35870 Epoch time: 12138.71458087 Element set: 962 Inclination: 097.2355 deg RA of node: 175.5346 deg Eccentricity: 0.0000556 Arg of perigee: 334.2768 deg Mean anomaly: 148.2888 deg Mean motion: 15.23572439 rev/day Decay rate: 4.326e-05 rev/day^2 Epoch rev: 14797 Checksum: 351
Satellite: TISAT-1 Catalog number: 36799 Epoch time: 12138.68604365 Element set: 980 Inclination: 098.0629 deg RA of node: 214.7977 deg Eccentricity: 0.0013504 Arg of perigee: 272.3066 deg Mean anomaly: 087.6608 deg Mean motion: 14.81852564 rev/day Decay rate: 1.819e-05 rev/day^2 Epoch rev: 9997 Checksum: 356
Satellite: STUDSAT Catalog number: 36801 Epoch time: 12137.78950805 Element set: 0419 Inclination: 098.0700 deg RA of node: 214.4727 deg Eccentricity: 0.0011702 Arg of perigee: 262.0975 deg Mean anomaly: 097.8910 deg Mean motion: 14.84006435 rev/day Decay rate: 4.894e-05 rev/day^2 Epoch rev: 09986 Checksum: 315
Satellite: FO-69 Catalog number: 37227 Epoch time: 12137.20776016 Element set: 0185 Inclination: 071.9700 deg RA of node: 022.5277 deg Eccentricity: 0.0015841 Arg of perigee: 014.5841 deg Mean anomaly: 345.5297 deg Mean motion: 14.77040511 rev/day Decay rate: -1.56e-06 rev/day^2 Epoch rev: 03137 Checksum: 286
Satellite: FO-70 Catalog number: 37380 Epoch time: 12137.27567472 Element set: 0185 Inclination: 071.9741 deg RA of node: 022.8962 deg Eccentricity: 0.0018036 Arg of perigee: 010.0794 deg Mean anomaly: 350.0707 deg Mean motion: 14.76807976 rev/day Decay rate: 1.384e-05 rev/day^2 Epoch rev: 03127 Checksum: 308
Satellite: ALMASAT-1 Catalog number: 38078 Epoch time: 12138.87108008 Element set: 217 Inclination: 069.4994 deg RA of node: 025.8912 deg Eccentricity: 0.0763296 Arg of perigee: 286.5758 deg Mean anomaly: 065.2891 deg Mean motion: 14.08465418 rev/day Decay rate: 1.2555e-04 rev/day^2 Epoch rev: 1328 Checksum: 338
Satellite: XATCOBEO Catalog number: 38082 Epoch time: 12138.72689990 Element set: 247 Inclination: 069.4967 deg RA of node: 025.0805 deg Eccentricity: 0.0745305 Arg of perigee: 286.1038 deg Mean anomaly: 065.9384 deg Mean motion: 14.14384961 rev/day Decay rate: 2.8782e-04 rev/day^2 Epoch rev: 1328 Checksum: 336
/EX SB KEPS @ AMSAT $ORB12138.W Orbital Elements 12138.WEATHER
HR AMSAT ORBITAL ELEMENTS FOR WEATHER SATELLITES FROM WA5QGD FORT WORTH,TX May 17, 2012 Send SUBSCRIBE KEPS/UNSUBSCRIBE KEPS to [email protected] only BID: ORB12138.W TO ALL RADIO AMATEURS BT
Satellite: NOAA-10 Catalog number: 16969 Epoch time: 12137.61984439 Element set: 0924 Inclination: 098.5852 deg RA of node: 167.2310 deg Eccentricity: 0.0012210 Arg of perigee: 331.9956 deg Mean anomaly: 028.0555 deg Mean motion: 14.27549713 rev/day Decay rate: 1.20e-06 rev/day^2 Epoch rev: 33536 Checksum: 305
